Location: *
(40.7873°S, 98.7174°E)
Time: 10:04:34
(UTC+00:00)

Cosmos 1939 Rocket - Pass Details

Date: 24 May 2022
Orbit: 530 x 580 km, 97.4° (Epoch: 04 July)

Event Time Altitude Azimuth Distance (km) Brightness Sun altitude
Rises 11:41:55 0° 176° (S) 2,721 6.2 -17.1°
Reaches altitude 10° 11:44:08 10° 183° (S) 1,818 5.4 -17.5°
Maximum altitude 11:47:49 40° 253° (WSW) 802 4.1 -18.2°
Drops below altitude 10° 11:51:27 10° 323° (NW) 1,791 6.1 -18.8°
Sets 11:53:37 0° 330° (NNW) 2,675 6.9 -19.2°
